Terminal Aerodrome Forecast
Issued by NWS Melbourne, FL

Home | Current Version | Previous Version | Text Only | Print | Product List | Glossary On
Versions: 1 2 3 4 5 6 7 8 9 10 11 12 13 14 15
000
FTUS42 KMLB 301120
TAFDAB
TAF
KDAB 301120Z 3012/3112 22003KT P6SM SCT150 SCT250
     FM301400 25006KT P6SM SCT025
     FM301800 06009KT P6SM SCT040 BKN250
     FM302000 10009KT P6SM FEW040 SCT100 SCT250
     FM310000 12006KT P6SM FEW030 BKN120=

USA.gov is the U.S. government's official web portal to all federal, state and local government web resources and services.